CW6666 Weather Reports


Display with metric or nautical units.
time (UTC)temp
F
wind
direction
speed
MPH
gust
MPH
rain 1hr
in
rain 24hr
in
rain mn
in
humidity
%
barometer
mb
20170228073540 82 56 15.0 21.0 0.00 0.08 0.00 84 1007.7
20170228073040 82 40 19.0 21.0 0.00 0.08 0.00 84 1007.7
20170228072540 82 42 16.0 21.0 0.00 0.08 0.00 84 1007.7
20170228072041 82 51 16.0 21.0 0.00 0.08 0.00 85 1007.7
20170228071540 82 41 15.0 20.0 0.00 0.08 0.00 85 1007.7
20170228071040 82 37 18.0 20.0 0.00 0.08 0.00 85 1007.4
20170228070540 82 39 13.0 19.0 0.00 0.08 0.00 86 1007.4
20170228070041 82 42 16.0 19.0 0.00 0.08 0.00 86 1007.4
20170228065540 82 30 16.0 19.0 0.00 0.08 0.00 86 1007.2
20170228065041 82 36 17.0 20.0 0.00 0.08 0.00 85 1007.2
20170228064541 82 40 14.0 20.0 0.00 0.08 0.00 86 1007.2
20170228064040 82 34 18.0 19.0 0.00 0.08 0.00 86 1007.2
20170228063541 82 33 15.0 18.0 0.00 0.08 0.00 86 1007.2
20170228063041 82 44 13.0 19.0 0.00 0.08 0.00 85 1007.2
20170228062540 82 41 15.0 19.0 0.00 0.08 0.00 85 1007.1
20170228062041 82 46 16.0 19.0 0.00 0.08 0.00 85 1007.1
20170228061540 83 43 16.0 20.0 0.00 0.08 0.00 84 1007.1
20170228061040 83 51 16.0 21.0 0.00 0.08 0.00 83 1007.1
20170228060541 83 48 14.0 21.0 0.00 0.08 0.00 82 1007.1
20170228060041 83 43 18.0 20.0 0.00 0.08 0.00 83 1007.1
20170228055540 83 54 17.0 20.0 0.00 0.08 0.00 82 1007.1
20170228055040 83 51 18.0 20.0 0.00 0.08 0.00 81 1007.1
20170228054540 83 48 14.0 21.0 0.00 0.08 0.00 81 1007.1
20170228054040 83 55 16.0 21.0 0.00 0.08 0.00 81 1007.0
20170228053540 83 57 17.0 20.0 0.00 0.08 0.00 83 1007.0
20170228053040 83 53 17.0 20.0 0.00 0.08 0.00 84 1007.0
20170228052541 83 39 13.0 20.0 0.00 0.08 0.00 84 1007.1
20170228052040 83 55 15.0 20.0 0.00 0.08 0.00 84 1007.1
20170228051540 83 44 19.0 20.0 0.00 0.08 0.00 84 1007.1
20170228051041 83 36 14.0 19.0 0.00 0.08 0.00 84 1007.1
20170228050541 83 38 15.0 23.0 0.00 0.08 0.00 84 1007.1
20170228050040 83 46 17.0 23.0 0.00 0.08 0.00 84 1007.1
20170228045540 83 48 18.0 21.0 0.00 0.08 0.00 83 1007.2
20170228045040 83 44 15.0 23.0 0.00 0.08 0.00 85 1007.2
20170228044540 83 47 19.0 23.0 0.00 0.08 0.00 83 1007.2
20170228044040 84 46 19.0 20.0 0.00 0.08 0.00 82 1007.5
20170228043540 84 46 15.0 20.0 0.00 0.08 0.00 82 1007.5
20170228043040 84 41 17.0 20.0 0.00 0.08 0.00 81 1007.5
20170228042540 84 58 16.0 20.0 0.00 0.08 0.00 82 1007.7
20170228042041 84 43 19.0 20.0 0.00 0.08 0.00 81 1007.7
20170228041541 84 44 13.0 20.0 0.00 0.08 0.00 81 1007.7
20170228041041 84 42 16.0 20.0 0.00 0.08 0.00 82 1007.7
20170228040541 84 46 19.0 20.0 0.00 0.08 0.00 81 1007.7
20170228040040 85 34 14.0 18.0 0.00 0.08 0.00 84 1007.7
20170228035541 84 43 15.0 19.0 0.00 0.08 0.00 82 1007.9
20170228035041 84 41 16.0 19.0 0.00 0.08 0.00 82 1007.9
20170228034540 84 51 15.0 20.0 0.00 0.08 0.00 82 1007.9
20170228034040 84 55 17.0 20.0 0.00 0.08 0.00 82 1008.0
20170228033541 84 49 17.0 20.0 0.00 0.08 0.00 82 1008.0
20170228033040 84 52 17.0 20.0 0.00 0.08 0.00 82 1008.0
20170228032540 84 40 15.0 19.0 0.00 0.08 0.00 83 1008.2
20170228032041 84 44 15.0 20.0 0.00 0.08 0.00 83 1008.2
20170228031540 84 45 16.0 20.0 0.00 0.08 0.00 83 1008.2
20170228031041 83 35 16.0 19.0 0.00 0.08 0.00 84 1008.3
20170228030541 84 39 15.0 19.0 0.00 0.08 0.00 83 1008.3
20170228030040 84 44 13.0 19.0 0.00 0.08 0.00 84 1008.3
20170228025541 84 42 15.0 19.0 0.00 0.08 0.00 82 1008.5
20170228025041 84 46 12.0 19.0 0.00 0.08 0.00 81 1008.5
20170228024540 84 39 16.0 20.0 0.00 0.08 0.00 81 1008.5
20170228024040 84 40 18.0 21.0 0.00 0.08 0.00 80 1008.7
20170228023540 84 55 17.0 21.0 0.00 0.08 0.00 79 1008.7
20170228023040 84 48 19.0 19.0 0.00 0.08 0.00 81 1008.7
20170228022541 84 55 17.0 20.0 0.00 0.08 0.00 80 1008.8
20170228022040 84 53 16.0 20.0 0.00 0.08 0.00 80 1008.8
20170228021540 83 47 16.0 21.0 0.00 0.08 0.00 80 1008.8
20170228021040 83 54 16.0 21.0 0.00 0.08 0.00 80 1009.2
20170228020540 83 40 19.0 21.0 0.00 0.08 0.00 80 1009.2
20170228020040 83 53 15.0 21.0 0.00 0.08 0.00 80 1009.2
20170228015540 84 51 15.0 20.0 0.00 0.08 0.00 79 1009.5
20170228015040 84 36 18.0 20.0 0.00 0.08 0.00 80 1009.5
20170228014541 84 57 17.0 20.0 0.00 0.08 0.00 79 1009.5
20170228014040 84 42 17.0 19.0 0.00 0.08 0.00 80 1009.8
20170228013540 84 50 16.0 21.0 0.00 0.08 0.00 81 1009.8
20170228013040 83 49 18.0 21.0 0.00 0.08 0.00 81 1009.8
20170228012541 83 59 16.0 21.0 0.00 0.08 0.00 81 1010.2
20170228012040 83 54 17.0 21.0 0.00 0.08 0.00 82 1010.2
20170228011540 83 42 13.0 20.0 0.00 0.08 0.00 82 1010.2
20170228011040 83 53 17.0 20.0 0.00 0.08 0.00 83 1010.3
20170228010540 83 65 16.0 20.0 0.00 0.08 0.00 83 1010.3
20170228010040 83 54 17.0 20.0 0.00 0.08 0.00 83 1010.3
20170228005541 83 53 16.0 20.0 0.00 0.08 0.00 82 1010.3
20170228005041 83 50 16.0 21.0 0.00 0.08 0.00 84 1010.3
20170228004540 83 54 16.0 22.0 0.00 0.08 0.00 84 1010.3
20170228004041 83 48 15.0 22.0 0.00 0.08 0.00 84 1010.4
20170228003541 83 40 20.0 20.0 0.00 0.08 0.00 84 1010.4
20170228003040 83 40 16.0 18.0 0.00 0.08 0.00 85 1010.4
20170228002541 83 59 14.0 19.0 0.00 0.08 0.00 83 1010.6
20170228002040 83 40 16.0 19.0 0.00 0.08 0.00 84 1010.6
20170228001540 83 44 14.0 19.0 0.00 0.08 0.00 83 1010.6
20170228001040 83 57 19.0 20.0 0.00 0.08 0.00 82 1010.7
20170228000540 83 61 17.0 20.0 0.00 0.08 0.00 83 1010.7
20170228000040 83 57 17.0 22.0 0.00 0.08 0.00 82 1010.7
20170227235540 82 58 16.0 22.0 0.00 0.08 0.00 81 1010.6
20170227235040 82 39 16.0 21.0 0.00 0.08 0.00 81 1010.6
20170227234541 82 51 16.0 21.0 0.00 0.08 0.00 82 1010.6
20170227234040 82 47 16.0 21.0 0.00 0.08 0.00 82 1010.4
20170227233541 82 55 18.0 21.0 0.00 0.08 0.00 81 1010.4
20170227233040 82 56 17.0 21.0 0.00 0.08 0.00 82 1010.4
20170227232541 82 51 15.0 20.0 0.00 0.08 0.00 82 1010.4
20170227232041 82 44 18.0 20.0 0.00 0.08 0.00 82 1010.4
20170227231540 82 68 16.0 19.0 0.00 0.08 0.00 83 1010.4
20170227231040 82 48 16.0 20.0 0.00 0.08 0.00 84 1010.3
20170227230540 82 51 17.0 20.0 0.00 0.08 0.00 84 1010.3
20170227230040 82 58 16.0 20.0 0.00 0.08 0.00 85 1010.3
20170227225541 82 49 15.0 20.0 0.00 0.08 0.00 84 1010.3
20170227225041 83 62 17.0 21.0 0.00 0.08 0.00 83 1010.3
20170227224540 82 67 16.0 21.0 0.00 0.08 0.00 82 1010.3
20170227224040 82 54 18.0 21.0 0.00 0.08 0.00 83 1010.3
20170227223540 82 44 15.0 21.0 0.00 0.08 0.00 84 1010.3
20170227223040 82 38 16.0 21.0 0.00 0.08 0.00 85 1010.3
20170227222540 82 32 15.0 19.0 0.00 0.08 0.00 86 1010.3
20170227222040 82 51 15.0 19.0 0.00 0.08 0.00 86 1010.3
20170227221540 82 44 17.0 19.0 0.00 0.08 0.00 86 1010.3
20170227221040 82 42 15.0 19.0 0.00 0.08 0.00 86 1010.3
20170227220541 82 42 14.0 18.0 0.00 0.08 0.00 87 1010.3
20170227220040 82 48 17.0 21.0 0.00 0.08 0.00 87 1010.3
20170227215540 82 42 17.0 21.0 0.00 0.08 0.00 87 1010.2
20170227215041 82 44 16.0 16.0 0.00 0.08 0.00 88 1010.2
20170227214540 82 41 15.0 16.0 0.00 0.08 0.00 87 1010.2
20170227214040 82 50 15.0 18.0 0.00 0.08 0.00 86 1010.1
20170227213540 81 46 15.0 18.0 0.00 0.08 0.00 86 1010.1
20170227213040 82 41 17.0 18.0 0.00 0.08 0.00 87 1010.1
20170227212540 81 51 16.0 18.0 0.00 0.08 0.00 86 1010.0
20170227212040 81 46 15.0 18.0 0.00 0.08 0.00 87 1010.0
20170227211540 81 35 14.0 18.0 0.00 0.08 0.00 86 1010.0
20170227211040 81 40 14.0 18.0 0.00 0.08 0.00 86 1009.9
20170227210540 81 48 18.0 18.0 0.00 0.08 0.00 86 1009.9
20170227210040 81 49 16.0 18.0 0.00 0.08 0.00 86 1009.9
20170227205540 81 34 14.0 17.0 0.00 0.08 0.00 86 1009.8
20170227205040 81 46 14.0 19.0 0.00 0.08 0.00 86 1009.8
20170227204540 81 46 16.0 19.0 0.00 0.08 0.00 86 1009.8
20170227204040 81 45 16.0 17.0 0.00 0.08 0.00 86 1009.8
20170227203540 81 38 13.0 17.0 0.00 0.08 0.00 86 1009.8
20170227203040 81 38 15.0 19.0 0.00 0.08 0.00 86 1009.8
20170227202540 81 35 14.0 19.0 0.00 0.08 0.00 86 1009.7
20170227202041 81 44 15.0 18.0 0.00 0.08 0.00 86 1009.7
20170227201540 81 45 13.0 20.0 0.00 0.08 0.00 87 1009.7
20170227201040 81 42 18.0 20.0 0.00 0.08 0.00 87 1009.4
20170227200540 81 49 16.0 19.0 0.00 0.08 0.00 86 1009.4
20170227200040 81 34 15.0 19.0 0.00 0.08 0.00 87 1009.4
20170227195540 81 42 17.0 18.0 0.00 0.08 0.00 87 1009.2
20170227195040 81 40 16.0 18.0 0.00 0.08 0.00 87 1009.2
20170227194540 81 35 16.0 17.0 0.00 0.08 0.00 87 1009.2
20170227194040 81 53 15.0 17.0 0.00 0.08 0.00 86 1009.2
20170227193540 81 48 13.0 16.0 0.00 0.08 0.00 87 1009.2
20170227193040 81 40 14.0 17.0 0.00 0.08 0.00 87 1009.2
20170227192540 81 55 12.0 19.0 0.00 0.08 0.00 87 1009.0
20170227192040 82 43 15.0 19.0 0.00 0.08 0.00 87 1009.0
20170227191540 82 62 13.0 17.0 0.00 0.08 0.00 85 1009.0
20170227191040 81 62 14.0 17.0 0.00 0.08 0.00 84 1008.9
20170227190540 81 63 14.0 16.0 0.00 0.08 0.00 86 1008.9
20170227190040 81 58 12.0 16.0 0.00 0.08 0.00 87 1008.9
20170227185540 81 38 14.0 16.0 0.00 0.08 0.00 87 1008.8
20170227185040 81 44 15.0 15.0 0.00 0.08 0.00 87 1008.8
20170227184540 81 40 12.0 18.0 0.00 0.08 0.00 87 1008.8
20170227184040 81 32 14.0 18.0 0.00 0.08 0.00 87 1008.8
20170227183540 81 49 13.0 15.0 0.00 0.08 0.00 87 1008.8
20170227183040 81 42 14.0 15.0 0.00 0.08 0.00 87 1008.8
20170227182540 81 49 14.0 15.0 0.00 0.08 0.00 87 1008.9
20170227182040 81 58 12.0 15.0 0.00 0.08 0.00 87 1008.9
20170227181540 81 57 12.0 15.0 0.00 0.08 0.00 88 1008.9
20170227181040 81 74 11.0 16.0 0.00 0.08 0.00 87 1008.8
20170227180540 81 49 13.0 16.0 0.00 0.08 0.00 87 1008.8
20170227180040 81 45 12.0 16.0 0.00 0.08 0.00 87 1008.8
20170227175540 81 67 15.0 15.0 0.00 0.08 0.00 87 1008.8
20170227175040 81 63 13.0 15.0 0.00 0.08 0.00 87 1008.8
20170227174540 81 53 12.0 15.0 0.00 0.08 0.00 87 1008.8
20170227174040 81 67 12.0 16.0 0.00 0.08 0.00 87 1008.9
20170227173540 81 51 13.0 16.0 0.00 0.08 0.00 86 1008.9
20170227173040 81 36 12.0 16.0 0.00 0.08 0.00 86 1008.9
20170227172540 81 51 13.0 16.0 0.00 0.08 0.00 85 1009.0
20170227172040 81 53 13.0 15.0 0.00 0.08 0.00 86 1009.0
20170227171540 81 67 13.0 15.0 0.00 0.08 0.00 85 1009.0
20170227171040 81 64 13.0 15.0 0.00 0.08 0.00 85 1009.1
20170227170540 81 53 14.0 15.0 0.00 0.08 0.00 85 1009.1
20170227170040 81 56 12.0 16.0 0.00 0.08 0.00 86 1009.1
20170227165540 81 53 13.0 16.0 0.00 0.08 0.00 85 1009.2
20170227165040 81 51 12.0 16.0 0.00 0.08 0.00 86 1009.2
20170227164540 81 56 12.0 16.0 0.00 0.08 0.00 86 1009.2
20170227164040 81 55 14.0 16.0 0.00 0.08 0.00 85 1009.3
20170227163540 81 52 12.0 16.0 0.00 0.08 0.00 85 1009.3
20170227163040 81 55 14.0 16.0 0.00 0.08 0.00 86 1009.3
20170227162540 81 51 12.0 16.0 0.00 0.08 0.00 85 1009.7
20170227162041 82 51 13.0 18.0 0.00 0.08 0.00 86 1009.7
20170227161540 81 59 15.0 19.0 0.00 0.08 0.00 85 1009.7
20170227161040 81 53 15.0 19.0 0.00 0.08 0.00 85 1009.7
20170227160540 81 59 14.0 17.0 0.00 0.08 0.00 86 1009.7
20170227160040 81 59 13.0 16.0 0.00 0.08 0.00 86 1009.7
20170227155540 82 57 14.0 16.0 0.00 0.08 0.00 86 1009.8
20170227155040 81 63 11.0 15.0 0.00 0.08 0.00 85 1009.8
20170227154540 82 59 12.0 16.0 0.00 0.08 0.00 86 1009.8
20170227154040 81 62 15.0 16.0 0.00 0.08 0.00 86 1009.9
20170227153540 82 68 11.0 15.0 0.00 0.08 0.00 85 1009.9
20170227153040 82 67 11.0 17.0 0.00 0.08 0.00 85 1009.9
20170227152540 81 56 15.0 17.0 0.00 0.08 0.00 84 1010.0
20170227152040 81 58 14.0 17.0 0.00 0.08 0.00 84 1010.0
20170227151540 82 65 14.0 17.0 0.00 0.08 0.00 84 1010.0
20170227151040 82 75 11.0 17.0 0.00 0.08 0.00 85 1010.0
20170227150540 81 67 16.0 17.0 0.00 0.08 0.00 85 1010.0
20170227150040 82 63 12.0 17.0 0.00 0.08 0.00 85 1010.0
20170227145540 82 69 14.0 19.0 0.00 0.08 0.00 85 1010.1
20170227145040 82 64 15.0 19.0 0.00 0.08 0.00 84 1010.1
20170227144540 82 63 16.0 19.0 0.00 0.08 0.00 84 1010.1
20170227144040 82 65 16.0 18.0 0.00 0.08 0.00 85 1010.3
20170227143540 82 71 13.0 17.0 0.00 0.08 0.00 86 1010.3
20170227143040 82 68 13.0 18.0 0.00 0.08 0.00 85 1010.3
20170227142540 82 67 15.0 18.0 0.01 0.08 0.00 85 1010.4
20170227142040 82 71 13.0 17.0 0.01 0.08 0.00 85 1010.4
20170227141540 82 76 14.0 19.0 0.01 0.08 0.00 84 1010.4
20170227141040 82 57 14.0 19.0 0.01 0.08 0.00 84 1010.5
20170227140540 82 67 14.0 20.0 0.01 0.08 0.00 85 1010.5
20170227140040 81 69 16.0 20.0 0.01 0.08 0.00 85 1010.5
20170227135540 82 59 14.0 17.0 0.01 0.08 0.08 87 1010.5
20170227135040 82 79 12.0 17.0 0.01 0.10 0.08 86 1010.5
20170227134540 81 70 15.0 17.0 0.01 0.10 0.08 86 1010.5
20170227134040 81 68 13.0 18.0 0.01 0.10 0.08 86 1010.6
20170227133540 82 74 14.0 18.0 0.01 0.10 0.08 87 1010.6
20170227133040 81 69 14.0 17.0 0.01 0.10 0.08 87 1010.6
20170227132540 81 73 15.0 17.0 0.00 0.09 0.07 88 1010.7
20170227132040 81 67 12.0 17.0 0.00 0.09 0.07 88 1010.7
20170227131540 81 78 13.0 17.0 0.00 0.09 0.07 89 1010.7
20170227131040 81 69 12.0 16.0 0.00 0.09 0.07 89 1010.8
20170227130540 81 75 14.0 16.0 0.00 0.09 0.07 89 1010.8
20170227130040 81 75 13.0 15.0 0.00 0.09 0.07 89 1010.8
20170227125540 81 71 14.0 17.0 0.00 0.09 0.07 89 1010.8
20170227125040 81 67 13.0 17.0 0.00 0.09 0.07 88 1010.8
20170227124540 81 53 12.0 16.0 0.07 0.09 0.07 89 1010.8
20170227124040 81 65 14.0 16.0 0.07 0.09 0.07 89 1010.8
20170227123540 81 59 14.0 16.0 0.07 0.09 0.07 89 1010.8
20170227123040 81 65 15.0 17.0 0.07 0.09 0.07 89 1010.8
20170227122542 81 63 13.0 17.0 0.07 0.09 0.07 89 1010.9
20170227122040 81 51 16.0 18.0 0.07 0.09 0.07 90 1010.9
20170227121540 80 46 14.0 18.0 0.07 0.09 0.07 90 1010.9
20170227121040 80 71 14.0 17.0 0.07 0.09 0.07 91 1011.0
20170227120540 80 63 14.0 17.0 0.07 0.09 0.07 90 1011.0
20170227120040 80 64 14.0 19.0 0.07 0.09 0.07 90 1011.0
20170227115540 80 62 15.0 25.0 0.07 0.09 0.07 90 1010.9
20170227115040 81 47 10.0 25.0 0.07 0.09 0.07 88 1010.9
20170227114540 82 43 20.0 20.0 0.00 0.02 0.00 87 1010.9
20170227114040 82 58 13.0 15.0 0.00 0.02 0.00 86 1010.8
20170227113540 82 76 11.0 15.0 0.00 0.02 0.00 87 1010.8
20170227113040 82 75 12.0 15.0 0.00 0.02 0.00 86 1010.8
20170227112540 82 62 12.0 16.0 0.00 0.02 0.00 86 1010.8
20170227112040 82 67 13.0 17.0 0.00 0.02 0.00 86 1010.8
20170227111540 82 59 14.0 18.0 0.00 0.02 0.00 86 1010.8
20170227111040 82 59 14.0 18.0 0.00 0.02 0.00 86 1010.7
20170227110540 82 55 15.0 16.0 0.00 0.02 0.00 86 1010.7
20170227110040 82 55 14.0 17.0 0.00 0.02 0.00 86 1010.7
20170227105540 82 46 14.0 17.0 0.00 0.02 0.00 86 1010.3
20170227105040 82 60 14.0 18.0 0.00 0.02 0.00 86 1010.3
20170227104540 82 53 15.0 18.0 0.00 0.02 0.00 86 1010.3
20170227104040 82 59 16.0 17.0 0.00 0.02 0.00 86 1010.0
20170227103540 82 61 13.0 17.0 0.00 0.02 0.00 86 1010.0
20170227103040 82 67 14.0 17.0 0.00 0.02 0.00 86 1010.0
20170227102540 82 55 14.0 18.0 0.00 0.02 0.00 86 1009.9
20170227102040 82 60 15.0 18.0 0.00 0.02 0.00 86 1009.9
20170227101540 82 57 16.0 18.0 0.00 0.02 0.00 85 1009.9
20170227101040 82 63 13.0 19.0 0.00 0.02 0.00 85 1009.8
20170227100540 82 61 13.0 19.0 0.00 0.02 0.00 86 1009.8
20170227100040 82 67 15.0 19.0 0.00 0.02 0.00 86 1009.8
20170227095540 82 60 16.0 19.0 0.00 0.02 0.00 86 1009.5
20170227095041 82 53 16.0 19.0 0.00 0.02 0.00 86 1009.5
20170227094540 82 51 16.0 20.0 0.00 0.02 0.00 87 1009.5
20170227094040 82 53 18.0 20.0 0.00 0.02 0.00 87 1009.3
20170227093540 82 58 16.0 19.0 0.00 0.02 0.00 88 1009.3
20170227093040 82 59 15.0 19.0 0.00 0.02 0.00 88 1009.3
20170227092540 82 63 13.0 18.0 0.00 0.02 0.00 88 1009.1
20170227092040 82 57 15.0 19.0 0.00 0.02 0.00 88 1009.1
20170227091540 82 44 14.0 20.0 0.00 0.02 0.00 87 1009.1
20170227091040 82 54 15.0 20.0 0.00 0.02 0.00 87 1008.8
20170227090540 82 59 14.0 18.0 0.00 0.02 0.00 86 1008.8
20170227090040 82 57 12.0 17.0 0.00 0.02 0.00 87 1008.8
20170227085540 82 71 14.0 17.0 0.00 0.02 0.00 87 1008.7
20170227085040 82 59 13.0 15.0 0.00 0.02 0.00 87 1008.7
20170227084540 82 56 13.0 15.0 0.00 0.02 0.00 87 1008.7
20170227084040 82 59 14.0 17.0 0.00 0.02 0.00 87 1008.3
20170227083540 82 59 14.0 17.0 0.00 0.02 0.00 87 1008.3
20170227083040 82 55 15.0 19.0 0.00 0.02 0.00 87 1008.3
20170227082540 82 44 15.0 19.0 0.00 0.02 0.00 86 1008.1
20170227082040 82 51 16.0 17.0 0.00 0.02 0.00 85 1008.1
20170227081540 82 50 15.0 17.0 0.00 0.02 0.00 85 1008.1
20170227081040 83 54 13.0 17.0 0.00 0.02 0.00 86 1007.8
20170227080540 83 53 15.0 18.0 0.00 0.02 0.00 85 1007.8
20170227080040 83 62 15.0 19.0 0.00 0.02 0.00 84 1007.8
20170227075540 83 60 15.0 19.0 0.00 0.02 0.00 84 1007.7
20170227075040 83 46 16.0 18.0 0.00 0.02 0.00 84 1007.7
20170227074540 83 60 17.0 19.0 0.00 0.02 0.00 84 1007.7
20170227074040 83 53 18.0 19.0 0.00 0.02 0.00 84 1007.7